,,,PA_Meas_PMT16A,,PR_Meas_QMR101_102,,RH_Meas_QMH101,,SR_Meas_QMS101,,TA_Meas_QMH101,,GenWind,,GenWind,
date,time,status,PA,status,PR,status,RH,status,SR,status,TA,status,DirAvg,status,SpdAvg,
2014-01-18, 00:00:04,VALID,1012.66,VALID,0,VALID,103.382,VALID,0,VALID,23.4212,VALID,333,VALID,0,
2014-01-18, 00:01:04,VALID,1012.67,VALID,0,VALID,103.451,VALID,0,VALID,23.4,VALID,333,VALID,0,
2014-01-18, 00:02:04,VALID,1012.64,VALID,0,VALID,103.321,VALID,0,VALID,23.4017,VALID,333,VALID,0,
2014-01-18, 00:03:04,VALID,1012.65,VALID,0,VALID,103.123,VALID,0,VALID,23.3823,VALID,333,VALID,0,
2014-01-18, 00:04:04,VALID,1012.66,VALID,0,VALID,103.138,VALID,0,VALID,23.3823,VALID,333,VALID,0,
2014-01-18, 00:05:04,VALID,1012.64,VALID,0,VALID,103.093,VALID,0,VALID,23.3823,VALID,333,VALID,0.4,
2014-01-18, 00:06:04,VALID,1012.63,VALID,0,VALID,102.887,VALID,0,VALID,23.3823,VALID,333,VALID,0.183984,
2014-01-18, 00:07:04,VALID,1012.58,VALID,0,VALID,102.78,VALID,0,VALID,23.3823,VALID,333,VALID,0.228516,
2014-01-18, 00:08:04,VALID,1012.58,VALID,0,VALID,102.849,VALID,0,VALID,23.3628,VALID,333,VALID,0.364062,
2014-01-18, 00:09:04,VALID,1012.56,VALID,0,VALID,102.971,VALID,0,VALID,23.3628,VALID,333,VALID,0.255859,
2014-01-18, 00:10:04,VALID,1012.55,VALID,0,VALID,102.963,VALID,0,VALID,23.3628,VALID,333,VALID,0,
2014-01-18, 00:11:04,VALID,1012.52,VALID,0,VALID,103.016,VALID,0,VALID,23.3433,VALID,333,VALID,0.0613281,
2014-01-18, 00:12:04,VALID,1012.5,VALID,0,VALID,103.169,VALID,0,VALID,23.3238,VALID,333,VALID,0.0453125,
2014-01-18, 00:13:04,VALID,1012.46,VALID,0,VALID,103.222,VALID,0,VALID,23.3043,VALID,333,VALID,0.409766,
2014-01-18, 00:14:04,VALID,1012.46,VALID,0,VALID,103.215,VALID,0,VALID,23.3043,VALID,333,VALID,0.491016,
2014-01-18, 00:15:04,VALID,1012.43,VALID,0,VALID,103.23,VALID,0,VALID,23.3043,VALID,333,VALID,0.18125,
2014-01-18, 00:16:04,VALID,1012.43,VALID,0,VALID,103.176,VALID,0,VALID,23.3043,VALID,333,VALID,0.242578,
2014-01-18, 00:17:04,VALID,1012.41,VALID,0,VALID,103.093,VALID,0,VALID,23.3043,VALID,333,VALID,0.196875,
2014-01-18, 00:18:04,VALID,1012.41,VALID,0,VALID,103.085,VALID,0,VALID,23.2848,VALID,333,VALID,0.464844,
2014-01-18, 00:19:04,VALID,1012.41,VALID,0,VALID,102.993,VALID,0,VALID,23.2848,VALID,333,VALID,0.617188,
2014-01-18, 00:20:04,VALID,1012.42,VALID,0,VALID,102.833,VALID,0,VALID,23.3043,VALID,333,VALID,0.262891,
2014-01-18, 00:21:04,VALID,1012.43,VALID,0,VALID,102.757,VALID,0,VALID,23.3043,VALID,333,VALID,0.905859,
2014-01-18, 00:22:04,VALID,1012.42,VALID,0,VALID,102.605,VALID,0,VALID,23.3043,VALID,333,VALID,0.195313,
2014-01-18, 00:23:04,VALID,1012.42,VALID,0,VALID,102.528,VALID,0,VALID,23.3043,VALID,333,VALID,0.0574219,
2014-01-18, 00:24:04,VALID,1012.37,VALID,0,VALID,102.513,VALID,0,VALID,23.3043,VALID,333,VALID,0.262891,
2014-01-18, 00:25:04,VALID,1012.37,VALID,0,VALID,102.505,VALID,0,VALID,23.2831,VALID,333,VALID,0.354688,
2014-01-18, 00:26:04,VALID,1012.36,VALID,0,VALID,102.452,VALID,0,VALID,23.3043,VALID,333,VALID,0.334766,
2014-01-18, 00:27:04,VALID,1012.37,VALID,0,VALID,102.467,VALID,0,VALID,23.2848,VALID,333,VALID,0.285937,
2014-01-18, 00:28:04,VALID,1012.31,VALID,0,VALID,102.376,VALID,0.112112,VALID,23.2848,VALID,333,VALID,0.105469,
2014-01-18, 00:29:04,VALID,1012.33,VALID,0,VALID,102.223,VALID,0,VALID,23.2848,VALID,333,VALID,0.00859375,
2014-01-18, 00:30:04,VALID,1012.33,VALID,0,VALID,102.33,VALID,0,VALID,23.2848,VALID,333,VALID,0.155078,
2014-01-18, 00:31:04,VALID,1012.33,VALID,0,VALID,102.299,VALID,0,VALID,23.2654,VALID,333,VALID,0.0078125,
2014-01-18, 00:32:04,VALID,1012.31,VALID,0,VALID,102.559,VALID,0,VALID,23.2848,VALID,333,VALID,0.0128906,
2014-01-18, 00:33:04,VALID,1012.3,VALID,0,VALID,102.574,VALID,0,VALID,23.2654,VALID,333,VALID,0.490234,
2014-01-18, 00:34:04,VALID,1012.32,VALID,0,VALID,102.46,VALID,0,VALID,23.2654,VALID,346,VALID,0.55625,
2014-01-18, 00:35:04,VALID,1012.33,VALID,0,VALID,102.566,VALID,0,VALID,23.2654,VALID,344,VALID,0.138672,
2014-01-18, 00:36:04,VALID,1012.3,VALID,0,VALID,102.353,VALID,0,VALID,23.2229,VALID,344,VALID,0.124609,
2014-01-18, 00:37:04,VALID,1012.31,VALID,0,VALID,102.254,VALID,0,VALID,23.2636,VALID,344,VALID,0.335156,
2014-01-18, 00:38:04,VALID,1012.31,VALID,0,VALID,101.972,VALID,0,VALID,23.2654,VALID,344,VALID,0.180859,
2014-01-18, 00:39:04,VALID,1012.3,VALID,0,VALID,101.644,VALID,0,VALID,23.2636,VALID,344,VALID,0.596875,
2014-01-18, 00:40:04,VALID,1012.28,VALID,0,VALID,101.331,VALID,0,VALID,23.2848,VALID,344,VALID,0.191406,
2014-01-18, 00:41:04,VALID,1012.27,VALID,0,VALID,101.056,VALID,0,VALID,23.2831,VALID,344,VALID,0.0183594,
2014-01-18, 00:42:04,VALID,1012.26,VALID,0,VALID,100.782,VALID,0,VALID,23.2848,VALID,346,VALID,0.633203,
2014-01-18, 00:43:04,VALID,1012.26,VALID,0,VALID,100.523,VALID,0,VALID,23.2848,VALID,346,VALID,0.270703,
2014-01-18, 00:44:04,VALID,1012.28,VALID,0,VALID,100.34,VALID,0,VALID,23.2848,VALID,346,VALID,0.534375,
2014-01-18, 00:45:04,VALID,1012.24,VALID,0,VALID,99.8211,VALID,0,VALID,23.2848,VALID,345,VALID,0.560547,
2014-01-18, 00:46:04,VALID,1012.25,VALID,0,VALID,99.2263,VALID,0,VALID,23.3043,VALID,344,VALID,0.392578,
2014-01-18, 00:47:04,VALID,1012.27,VALID,0,VALID,98.9213,VALID,0,VALID,23.3043,VALID,343,VALID,0.0496094,
2014-01-18, 00:48:04,VALID,1012.24,VALID,0,VALID,98.8069,VALID,0,VALID,23.2636,VALID,343,VALID,0.358984,
2014-01-18, 00:49:04,VALID,1012.25,VALID,0,VALID,98.8069,VALID,0,VALID,23.2848,VALID,340,VALID,0.524609,
2014-01-18, 00:50:04,VALID,1012.22,VALID,0,VALID,98.6925,VALID,0,VALID,23.2636,VALID,340,VALID,0.00117188,
2014-01-18, 00:51:04,VALID,1012.24,VALID,0,VALID,98.8298,VALID,0,VALID,23.2848,VALID,340,VALID,0.187109,
2014-01-18, 00:52:04,VALID,1012.25,VALID,0,VALID,99.0509,VALID,0,VALID,23.2459,VALID,340,VALID,0.267188,
2014-01-18, 00:53:04,VALID,1012.26,VALID,0,VALID,99.4017,VALID,0,VALID,23.2459,VALID,340,VALID,0.301562,
2014-01-18, 00:54:04,VALID,1012.24,VALID,0,VALID,99.7067,VALID,0,VALID,23.2654,VALID,340,VALID,0.109375,
2014-01-18, 00:55:04,VALID,1012.24,VALID,0,VALID,99.5161,VALID,0,VALID,23.2459,VALID,340,VALID,0,
2014-01-18, 00:56:04,VALID,1012.24,VALID,0,VALID,99.7296,VALID,0,VALID,23.2264,VALID,340,VALID,0.00390625,
2014-01-18, 00:57:04,VALID,1012.23,VALID,0,VALID,100.263,VALID,0,VALID,23.2264,VALID,340,VALID,0.209375,
2014-01-18, 00:58:04,VALID,1012.22,VALID,0,VALID,100.843,VALID,0,VALID,23.2264,VALID,340,VALID,0.111719,
2014-01-18, 00:59:04,VALID,1012.23,VALID,0,VALID,100.843,VALID,0,VALID,23.2051,VALID,340,VALID,0.00234375,
2014-01-18, 01:00:04,VALID,1012.2,VALID,0,VALID,101.102,VALID,0,VALID,23.2069,VALID,340,VALID,0.267578,
2014-01-18, 01:01:04,VALID,1012.21,VALID,0,VALID,101.362,VALID,0,VALID,23.1679,VALID,340,VALID,0.301953,
2014-01-18, 01:02:04,VALID,1012.18,VALID,0,VALID,101.537,VALID,0,VALID,23.1679,VALID,340,VALID,0,
2014-01-18, 01:03:04,VALID,1012.21,VALID,0,VALID,101.689,VALID,0,VALID,23.1679,VALID,340,VALID,0,
2014-01-18, 01:04:04,VALID,1012.19,VALID,0,VALID,102.002,VALID,0,VALID,23.1485,VALID,340,VALID,0.649219,
2014-01-18, 01:05:04,VALID,1012.17,VALID,0,VALID,102.025,VALID,0,VALID,23.1485,VALID,340,VALID,0.199219,
2014-01-18, 01:06:04,VALID,1012.15,VALID,0,VALID,101.964,VALID,0,VALID,23.129,VALID,340,VALID,0,
2014-01-18, 01:07:04,VALID,1012.15,VALID,0,VALID,102.292,VALID,0,VALID,23.1095,VALID,340,VALID,0,
2014-01-18, 01:08:04,VALID,1012.12,VALID,0,VALID,102.566,VALID,0,VALID,23.0705,VALID,340,VALID,0,
2014-01-18, 01:09:04,VALID,1012.1,VALID,0,VALID,102.742,VALID,0,VALID,23.0511,VALID,340,VALID,0,
2014-01-18, 01:10:04,VALID,1012.11,VALID,0,VALID,103.032,VALID,0,VALID,23.0316,VALID,340,VALID,0,
2014-01-18, 01:11:04,VALID,1012.08,VALID,0,VALID,103.268,VALID,0,VALID,23.0121,VALID,340,VALID,0,
2014-01-18, 01:12:04,VALID,1012.06,VALID,0,VALID,103.481,VALID,0,VALID,22.9731,VALID,340,VALID,0,
2014-01-18, 01:13:04,VALID,1012.05,VALID,0,VALID,103.581,VALID,0,VALID,22.9536,VALID,340,VALID,0,
2014-01-18, 01:14:04,VALID,1012.05,VALID,0,VALID,103.794,VALID,0,VALID,22.9147,VALID,340,VALID,0,
2014-01-18, 01:15:04,VALID,1012.02,VALID,0,VALID,103.947,VALID,0,VALID,22.8545,VALID,340,VALID,0,
2014-01-18, 01:16:04,VALID,1012.03,VALID,0,VALID,104,VALID,0,VALID,22.835,VALID,340,VALID,0,
2014-01-18, 01:17:04,VALID,1012.02,VALID,0,VALID,104,VALID,0,VALID,22.8368,VALID,340,VALID,0,
2014-01-18, 01:18:04,VALID,1012.04,VALID,0,VALID,104,VALID,0,VALID,22.8173,VALID,340,VALID,0,
2014-01-18, 01:19:04,VALID,1012.07,VALID,0,VALID,104,VALID,0,VALID,22.7783,VALID,340,VALID,0,
2014-01-18, 01:20:04,VALID,1012.06,VALID,0,VALID,104,VALID,0,VALID,22.7588,VALID,340,VALID,0,
2014-01-18, 01:21:04,VALID,1012.05,VALID,0,VALID,104,VALID,0,VALID,22.6987,VALID,340,VALID,0,
2014-01-18, 01:22:04,VALID,1012.03,VALID,0,VALID,104,VALID,0,VALID,22.7004,VALID,340,VALID,0,
2014-01-18, 01:23:04,VALID,1012.04,VALID,0,VALID,104,VALID,0,VALID,22.6597,VALID,340,VALID,0,
2014-01-18, 01:24:04,VALID,1012.04,VALID,0,VALID,104,VALID,0,VALID,22.6614,VALID,340,VALID,0,
2014-01-18, 01:25:04,VALID,1012.03,VALID,0,VALID,104,VALID,0,VALID,22.642,VALID,340,VALID,0,
2014-01-18, 01:26:04,VALID,1012.01,VALID,0,VALID,104,VALID,0,VALID,22.6208,VALID,340,VALID,0,
2014-01-18, 01:27:04,VALID,1011.99,VALID,0,VALID,104,VALID,0,VALID,22.6225,VALID,340,VALID,0,
2014-01-18, 01:28:04,VALID,1012.02,VALID,0,VALID,104,VALID,0,VALID,22.603,VALID,340,VALID,0,
2014-01-18, 01:29:04,VALID,1011.96,VALID,0,VALID,104,VALID,0,VALID,22.564,VALID,340,VALID,0,
2014-01-18, 01:30:04,VALID,1011.97,VALID,0,VALID,104,VALID,0,VALID,22.564,VALID,340,VALID,0,
2014-01-18, 01:31:04,VALID,1011.96,VALID,0,VALID,104,VALID,0,VALID,22.5251,VALID,340,VALID,0,
2014-01-18, 01:32:04,VALID,1011.93,VALID,0,VALID,104,VALID,0,VALID,22.5251,VALID,340,VALID,0,
2014-01-18, 01:33:04,VALID,1011.91,VALID,0,VALID,104,VALID,0,VALID,22.5056,VALID,340,VALID,0,
2014-01-18, 01:34:04,VALID,1011.91,VALID,0,VALID,104,VALID,0,VALID,22.4667,VALID,340,VALID,0.193359,
2014-01-18, 01:35:04,VALID,1011.91,VALID,0,VALID,104,VALID,0,VALID,22.4667,VALID,340,VALID,0.169141,
2014-01-18, 01:36:04,VALID,1011.89,VALID,0,VALID,104,VALID,0,VALID,22.426,VALID,340,VALID,0.125391,
2014-01-18, 01:37:04,VALID,1011.86,VALID,0,VALID,104,VALID,0,VALID,22.4472,VALID,340,VALID,0.00546875,
2014-01-18, 01:38:04,VALID,1011.83,VALID,0,VALID,104,VALID,0,VALID,22.4277,VALID,340,VALID,0,
2014-01-18, 01:39:04,VALID,1011.84,VALID,0,VALID,104,VALID,0,VALID,22.4277,VALID,340,VALID,0,
2014-01-18, 01:40:04,VALID,1011.83,VALID,0,VALID,104,VALID,0.112112,VALID,22.4082,VALID,340,VALID,0.104687,
2014-01-18, 01:41:04,VALID,1011.81,VALID,0,VALID,104,VALID,0,VALID,22.3887,VALID,340,VALID,0.0808594,
2014-01-18, 01:42:04,VALID,1011.79,VALID,0,VALID,104,VALID,0.112112,VALID,22.3887,VALID,340,VALID,0.197266,
2014-01-18, 01:43:04,VALID,1011.81,VALID,0,VALID,104,VALID,0,VALID,22.3693,VALID,340,VALID,0,
2014-01-18, 01:44:04,VALID,1011.79,VALID,0,VALID,104,VALID,0,VALID,22.3498,VALID,340,VALID,0,
2014-01-18, 01:45:04,VALID,1011.79,VALID,0,VALID,104,VALID,0.112112,VALID,22.3286,VALID,340,VALID,0,
2014-01-18, 01:46:04,VALID,1011.78,VALID,0,VALID,104,VALID,0,VALID,22.3091,VALID,340,VALID,0,
2014-01-18, 01:47:04,VALID,1011.81,VALID,0,VALID,104,VALID,0,VALID,22.2897,VALID,340,VALID,0,
2014-01-18, 01:48:04,VALID,1011.77,VALID,0,VALID,104,VALID,0.112112,VALID,22.2914,VALID,340,VALID,0.112109,
2014-01-18, 01:49:04,VALID,1011.75,VALID,0,VALID,104,VALID,0,VALID,22.2312,VALID,340,VALID,0,
2014-01-18, 01:50:04,VALID,1011.75,VALID,0,VALID,104,VALID,0,VALID,22.2118,VALID,340,VALID,0,
2014-01-18, 01:51:04,VALID,1011.73,VALID,0,VALID,104,VALID,0,VALID,22.1728,VALID,340,VALID,0,
2014-01-18, 01:52:04,VALID,1011.71,VALID,0,VALID,104,VALID,0,VALID,22.194,VALID,340,VALID,0,
2014-01-18, 01:53:04,VALID,1011.73,VALID,0,VALID,104,VALID,0,VALID,22.1728,VALID,340,VALID,0,
2014-01-18, 01:54:04,VALID,1011.73,VALID,0,VALID,104,VALID,0,VALID,22.1533,VALID,340,VALID,0,
2014-01-18, 01:55:04,VALID,1011.76,VALID,0,VALID,104,VALID,0.112112,VALID,22.155,VALID,340,VALID,0,
2014-01-18, 01:56:04,VALID,1011.73,VALID,0,VALID,104,VALID,0,VALID,22.1339,VALID,340,VALID,0.329297,
2014-01-18, 01:57:04,VALID,1011.72,VALID,0,VALID,104,VALID,0,VALID,22.1533,VALID,340,VALID,0.187109,
2014-01-18, 01:58:04,VALID,1011.72,VALID,0,VALID,104,VALID,0.112112,VALID,22.1745,VALID,340,VALID,0.145703,
2014-01-18, 01:59:04,VALID,1011.68,VALID,0,VALID,104,VALID,0,VALID,22.1533,VALID,340,VALID,0,
2014-01-18, 02:00:04,VALID,1011.64,VALID,0,VALID,104,VALID,0,VALID,22.1533,VALID,340,VALID,0,
2014-01-18, 02:01:04,VALID,1011.64,VALID,0,VALID,104,VALID,0.112112,VALID,22.1339,VALID,340,VALID,0,
2014-01-18, 02:02:04,VALID,1011.63,VALID,0,VALID,104,VALID,0.112112,VALID,22.1339,VALID,340,VALID,0.0597656,
2014-01-18, 02:03:04,VALID,1011.61,VALID,0,VALID,104,VALID,0.112112,VALID,22.155,VALID,340,VALID,0.14375,
2014-01-18, 02:04:04,VALID,1011.59,VALID,0,VALID,104,VALID,0.112112,VALID,22.1144,VALID,340,VALID,0.107813,
2014-01-18, 02:05:04,VALID,1011.58,VALID,0,VALID,104,VALID,0.112112,VALID,22.155,VALID,340,VALID,0.0257812,
2014-01-18, 02:06:04,VALID,1011.56,VALID,0,VALID,104,VALID,0.112112,VALID,22.1339,VALID,340,VALID,0,
2014-01-18, 02:07:04,VALID,1011.54,VALID,0,VALID,104,VALID,0.112112,VALID,22.1339,VALID,340,VALID,0,
2014-01-18, 02:08:04,VALID,1011.52,VALID,0,VALID,104,VALID,0,VALID,22.1144,VALID,340,VALID,0,
2014-01-18, 02:09:04,VALID,1011.52,VALID,0,VALID,104,VALID,0.112112,VALID,22.1144,VALID,340,VALID,0,
2014-01-18, 02:10:04,VALID,1011.48,VALID,0,VALID,104,VALID,0.112112,VALID,22.0949,VALID,340,VALID,0,
2014-01-18, 02:11:04,VALID,1011.49,VALID,0,VALID,104,VALID,0.112112,VALID,22.0754,VALID,340,VALID,0,
2014-01-18, 02:12:04,VALID,1011.48,VALID,0,VALID,104,VALID,0.112112,VALID,22.056,VALID,340,VALID,0,
2014-01-18, 02:13:04,VALID,1011.46,VALID,0,VALID,104,VALID,0.112112,VALID,22.017,VALID,340,VALID,0,
2014-01-18, 02:14:04,VALID,1011.49,VALID,0,VALID,104,VALID,0,VALID,22.0382,VALID,340,VALID,0.296484,
2014-01-18, 02:15:04,VALID,1011.51,VALID,0,VALID,104,VALID,0,VALID,22.0771,VALID,340,VALID,0,
2014-01-18, 02:16:04,VALID,1011.52,VALID,0,VALID,104,VALID,0.112112,VALID,22.0771,VALID,340,VALID,0.258203,
2014-01-18, 02:17:04,VALID,1011.48,VALID,0,VALID,104,VALID,0,VALID,22.0771,VALID,340,VALID,0,
2014-01-18, 02:18:04,VALID,1011.48,VALID,0,VALID,104,VALID,0,VALID,22.0365,VALID,340,VALID,0,
2014-01-18, 02:19:04,VALID,1011.47,VALID,0,VALID,104,VALID,0,VALID,22.0966,VALID,340,VALID,0,
2014-01-18, 02:20:04,VALID,1011.49,VALID,0,VALID,104,VALID,0,VALID,22.1161,VALID,340,VALID,0,
2014-01-18, 02:21:04,VALID,1011.5,VALID,0,VALID,104,VALID,0.112112,VALID,22.0949,VALID,340,VALID,0.0335938,
2014-01-18, 02:22:04,VALID,1011.5,VALID,0,VALID,104,VALID,0,VALID,22.1144,VALID,340,VALID,0,
2014-01-18, 02:23:04,VALID,1011.48,VALID,0,VALID,104,VALID,0.112112,VALID,22.1161,VALID,340,VALID,0,
2014-01-18, 02:24:04,VALID,1011.47,VALID,0,VALID,104,VALID,0,VALID,22.1161,VALID,340,VALID,0.00585938,
2014-01-18, 02:25:04,VALID,1011.47,VALID,0,VALID,104,VALID,0,VALID,22.1161,VALID,340,VALID,0,
2014-01-18, 02:26:04,VALID,1011.46,VALID,0,VALID,104,VALID,0.112112,VALID,22.0949,VALID,340,VALID,0.121875,
2014-01-18, 02:27:04,VALID,1011.42,VALID,0,VALID,104,VALID,0,VALID,22.1177,VALID,340,VALID,0,
2014-01-18, 02:28:04,VALID,1011.4,VALID,0,VALID,104,VALID,0,VALID,22.0983,VALID,340,VALID,0,
2014-01-18, 02:29:04,VALID,1011.39,VALID,0,VALID,104,VALID,0,VALID,22.0771,VALID,340,VALID,0,
2014-01-18, 02:30:04,VALID,1011.36,VALID,0,VALID,104,VALID,0,VALID,22.0771,VALID,340,VALID,0,
2014-01-18, 02:31:04,VALID,1011.34,VALID,0,VALID,104,VALID,0,VALID,22.0788,VALID,340,VALID,0,
2014-01-18, 02:32:04,VALID,1011.33,VALID,0,VALID,104,VALID,0,VALID,22.0771,VALID,340,VALID,0,
2014-01-18, 02:33:04,VALID,1011.34,VALID,0,VALID,104,VALID,0,VALID,22.0576,VALID,340,VALID,0.157813,
2014-01-18, 02:34:04,VALID,1011.33,VALID,0,VALID,104,VALID,0,VALID,22.0576,VALID,340,VALID,0,
2014-01-18, 02:35:04,VALID,1011.33,VALID,0,VALID,104,VALID,0,VALID,22.0576,VALID,340,VALID,0.132031,
2014-01-18, 02:36:04,VALID,1011.34,VALID,0,VALID,104,VALID,0,VALID,22.0593,VALID,340,VALID,0,
2014-01-18, 02:37:04,VALID,1011.35,VALID,0,VALID,104,VALID,0,VALID,22.0187,VALID,340,VALID,0,
2014-01-18, 02:38:04,VALID,1011.35,VALID,0,VALID,104,VALID,0,VALID,21.9992,VALID,340,VALID,0,
2014-01-18, 02:39:04,VALID,1011.32,VALID,0,VALID,104,VALID,0,VALID,21.9797,VALID,340,VALID,0,
2014-01-18, 02:40:04,VALID,1011.33,VALID,0,VALID,104,VALID,0,VALID,22.0009,VALID,340,VALID,0,
2014-01-18, 02:41:04,VALID,1011.34,VALID,0,VALID,104,VALID,0,VALID,21.9603,VALID,340,VALID,0,
2014-01-18, 02:42:04,VALID,1011.35,VALID,0,VALID,104,VALID,0,VALID,21.9814,VALID,340,VALID,0,
2014-01-18, 02:43:04,VALID,1011.32,VALID,0,VALID,104,VALID,0,VALID,21.9797,VALID,340,VALID,0,
2014-01-18, 02:44:04,VALID,1011.32,VALID,0,VALID,104,VALID,0,VALID,21.9797,VALID,340,VALID,0,
2014-01-18, 02:45:04,VALID,1011.28,VALID,0,VALID,104,VALID,0,VALID,21.9814,VALID,340,VALID,0,
2014-01-18, 02:46:04,VALID,1011.27,VALID,0,VALID,104,VALID,0,VALID,21.9619,VALID,340,VALID,0,
2014-01-18, 02:47:04,VALID,1011.24,VALID,0,VALID,104,VALID,0,VALID,21.9213,VALID,340,VALID,0,
2014-01-18, 02:48:04,VALID,1011.22,VALID,0,VALID,104,VALID,0,VALID,21.9018,VALID,340,VALID,0,
2014-01-18, 02:49:04,VALID,1011.23,VALID,0,VALID,104,VALID,0,VALID,21.9018,VALID,340,VALID,0,
2014-01-18, 02:50:04,VALID,1011.21,VALID,0,VALID,104,VALID,0.112112,VALID,21.9002,VALID,340,VALID,0,
2014-01-18, 02:51:04,VALID,1011.22,VALID,0,VALID,104,VALID,0.112112,VALID,21.9018,VALID,340,VALID,0,
2014-01-18, 02:52:04,VALID,1011.23,VALID,0,VALID,104,VALID,0.112112,VALID,21.8612,VALID,340,VALID,0,
2014-01-18, 02:53:04,VALID,1011.22,VALID,0,VALID,104,VALID,0.112112,VALID,21.8629,VALID,340,VALID,0,
2014-01-18, 02:54:04,VALID,1011.26,VALID,0,VALID,104,VALID,0.112112,VALID,21.8239,VALID,340,VALID,0,
2014-01-18, 02:55:04,VALID,1011.26,VALID,0,VALID,104,VALID,0.112112,VALID,21.8239,VALID,340,VALID,0,
2014-01-18, 02:56:04,VALID,1011.28,VALID,0,VALID,104,VALID,0,VALID,21.8045,VALID,340,VALID,0,
2014-01-18, 02:57:04,VALID,1011.29,VALID,0,VALID,104,VALID,0.112112,VALID,21.8239,VALID,340,VALID,0,
2014-01-18, 02:58:04,VALID,1011.3,VALID,0,VALID,104,VALID,0.112112,VALID,21.785,VALID,340,VALID,0,
2014-01-18, 02:59:04,VALID,1011.32,VALID,0,VALID,104,VALID,0,VALID,21.7444,VALID,340,VALID,0,
2014-01-18, 03:00:04,VALID,1011.3,VALID,0,VALID,104,VALID,0.112112,VALID,21.7655,VALID,340,VALID,0,
2014-01-18, 03:01:04,VALID,1011.31,VALID,0,VALID,104,VALID,0.112112,VALID,21.7444,VALID,340,VALID,0,
2014-01-18, 03:02:04,VALID,1011.31,VALID,0,VALID,104,VALID,0.112112,VALID,21.785,VALID,340,VALID,0,
2014-01-18, 03:03:04,VALID,1011.32,VALID,0,VALID,104,VALID,0.112112,VALID,21.7655,VALID,340,VALID,0.0652344,
2014-01-18, 03:04:04,VALID,1011.29,VALID,0,VALID,104,VALID,0.112112,VALID,21.785,VALID,340,VALID,0.132813,
2014-01-18, 03:05:04,VALID,1011.3,VALID,0,VALID,104,VALID,0.112112,VALID,21.7639,VALID,340,VALID,0,
2014-01-18, 03:06:04,VALID,1011.29,VALID,0,VALID,104,VALID,0.112112,VALID,21.7639,VALID,340,VALID,0,
2014-01-18, 03:07:04,VALID,1011.27,VALID,0,VALID,104,VALID,0,VALID,21.785,VALID,340,VALID,0,
2014-01-18, 03:08:04,VALID,1011.26,VALID,0,VALID,104,VALID,0,VALID,21.785,VALID,340,VALID,0,
2014-01-18, 03:09:04,VALID,1011.27,VALID,0,VALID,104,VALID,0.112112,VALID,21.7833,VALID,340,VALID,0.0015625,
2014-01-18, 03:10:04,VALID,1011.26,VALID,0,VALID,104,VALID,0.112112,VALID,21.7833,VALID,340,VALID,0,
2014-01-18, 03:11:04,VALID,1011.25,VALID,0,VALID,104,VALID,0.112112,VALID,21.7639,VALID,340,VALID,0,
2014-01-18, 03:12:04,VALID,1011.24,VALID,0,VALID,104,VALID,0.112112,VALID,21.7427,VALID,340,VALID,0,
2014-01-18, 03:13:04,VALID,1011.24,VALID,0,VALID,104,VALID,0.112112,VALID,21.785,VALID,340,VALID,0.144141,
2014-01-18, 03:14:04,VALID,1011.25,VALID,0,VALID,104,VALID,0.112112,VALID,21.7639,VALID,340,VALID,0.00859375,
2014-01-18, 03:15:04,VALID,1011.26,VALID,0,VALID,104,VALID,0.112112,VALID,21.7249,VALID,340,VALID,0.132031,
2014-01-18, 03:16:04,VALID,1011.27,VALID,0,VALID,104,VALID,0.112112,VALID,21.7266,VALID,340,VALID,0.172656,
2014-01-18, 03:17:04,VALID,1011.25,VALID,0,VALID,104,VALID,0.112112,VALID,21.686,VALID,340,VALID,0.120312,
2014-01-18, 03:18:04,VALID,1011.27,VALID,0,VALID,104,VALID,0.112112,VALID,21.7054,VALID,340,VALID,0.195313,
2014-01-18, 03:19:04,VALID,1011.27,VALID,0,VALID,104,VALID,0.112112,VALID,21.6665,VALID,340,VALID,0,
2014-01-18, 03:20:04,VALID,1011.3,VALID,0,VALID,104,VALID,0.112112,VALID,21.6665,VALID,340,VALID,0,
2014-01-18, 03:21:04,VALID,1011.32,VALID,0,VALID,104,VALID,0.112112,VALID,21.647,VALID,340,VALID,0,
2014-01-18, 03:22:04,VALID,1011.31,VALID,0,VALID,104,VALID,0,VALID,21.647,VALID,340,VALID,0.166797,
2014-01-18, 03:23:04,VALID,1011.34,VALID,0,VALID,104,VALID,0.112112,VALID,21.647,VALID,340,VALID,0.0457031,
2014-01-18, 03:24:04,VALID,1011.3,VALID,0,VALID,104,VALID,0.112112,VALID,21.6681,VALID,340,VALID,0,
2014-01-18, 03:25:04,VALID,1011.29,VALID,0,VALID,104,VALID,0.112112,VALID,21.6276,VALID,340,VALID,0,
2014-01-18, 03:26:04,VALID,1011.28,VALID,0,VALID,104,VALID,0.112112,VALID,21.6487,VALID,340,VALID,0,
2014-01-18, 03:27:04,VALID,1011.28,VALID,0,VALID,104,VALID,0.112112,VALID,21.6681,VALID,340,VALID,0,
2014-01-18, 03:28:04,VALID,1011.27,VALID,0,VALID,104,VALID,0.112112,VALID,21.6665,VALID,340,VALID,0,
2014-01-18, 03:29:04,VALID,1011.28,VALID,0,VALID,104,VALID,0.112112,VALID,21.7071,VALID,340,VALID,0,
2014-01-18, 03:30:04,VALID,1011.3,VALID,0,VALID,104,VALID,0.112112,VALID,21.7266,VALID,340,VALID,0,
2014-01-18, 03:31:04,VALID,1011.28,VALID,0,VALID,104,VALID,0.112112,VALID,21.7054,VALID,340,VALID,0,
2014-01-18, 03:32:04,VALID,1011.3,VALID,0,VALID,104,VALID,0.112112,VALID,21.7054,VALID,340,VALID,0,
2014-01-18, 03:33:04,VALID,1011.29,VALID,0,VALID,104,VALID,0,VALID,21.7054,VALID,340,VALID,0.05625,
2014-01-18, 03:34:04,VALID,1011.3,VALID,0,VALID,104,VALID,0.112112,VALID,21.7249,VALID,340,VALID,0,
2014-01-18, 03:35:04,VALID,1011.31,VALID,0,VALID,104,VALID,0,VALID,21.746,VALID,340,VALID,0,
2014-01-18, 03:36:04,VALID,1011.31,VALID,0,VALID,104,VALID,0,VALID,21.7266,VALID,340,VALID,0,
2014-01-18, 03:37:04,VALID,1011.3,VALID,0,VALID,104,VALID,0,VALID,21.6876,VALID,340,VALID,0,
2014-01-18, 03:38:04,VALID,1011.29,VALID,0,VALID,104,VALID,0,VALID,21.6276,VALID,340,VALID,0,
2014-01-18, 03:39:04,VALID,1011.31,VALID,0,VALID,104,VALID,0,VALID,21.6097,VALID,340,VALID,0,
2014-01-18, 03:40:04,VALID,1011.31,VALID,0,VALID,104,VALID,0,VALID,21.5691,VALID,340,VALID,0.0445312,
2014-01-18, 03:41:04,VALID,1011.3,VALID,0,VALID,104,VALID,0,VALID,21.5708,VALID,340,VALID,0,
2014-01-18, 03:42:04,VALID,1011.29,VALID,0,VALID,104,VALID,0,VALID,21.5497,VALID,340,VALID,0,
2014-01-18, 03:43:04,VALID,1011.33,VALID,0,VALID,104,VALID,0,VALID,21.5513,VALID,340,VALID,0,
2014-01-18, 03:44:04,VALID,1011.32,VALID,0,VALID,104,VALID,0,VALID,21.5708,VALID,340,VALID,0,
2014-01-18, 03:45:04,VALID,1011.34,VALID,0,VALID,104,VALID,0,VALID,21.5708,VALID,340,VALID,0.202344,
2014-01-18, 03:46:04,VALID,1011.35,VALID,0,VALID,104,VALID,0,VALID,21.5708,VALID,340,VALID,0.0136719,
2014-01-18, 03:47:04,VALID,1011.32,VALID,0,VALID,104,VALID,0,VALID,21.5513,VALID,340,VALID,0.10625,
2014-01-18, 03:48:04,VALID,1011.33,VALID,0,VALID,104,VALID,0,VALID,21.5107,VALID,340,VALID,0.144531,
2014-01-18, 03:49:04,VALID,1011.33,VALID,0,VALID,104,VALID,0.112112,VALID,21.4718,VALID,340,VALID,0.0382813,
2014-01-18, 03:50:04,VALID,1011.35,VALID,0,VALID,104,VALID,0,VALID,21.475,VALID,340,VALID,0,
2014-01-18, 03:51:04,VALID,1011.37,VALID,0,VALID,104,VALID,0,VALID,21.4345,VALID,340,VALID,0.0269531,
2014-01-18, 03:52:04,VALID,1011.37,VALID,0,VALID,104,VALID,0,VALID,21.415,VALID,340,VALID,0,
2014-01-18, 03:53:04,VALID,1011.37,VALID,0,VALID,104,VALID,0.112112,VALID,21.3955,VALID,340,VALID,0,
2014-01-18, 03:54:04,VALID,1011.39,VALID,0,VALID,104,VALID,0,VALID,21.3971,VALID,340,VALID,0,